M I D A S
Marine Information and Data Acquisition System
Tripno 1817 of the Zeeleeuw from 2009-09-30 06:58:40 to 2009-09-30 13:44:59
Back to CruiseResearch ActivitiesStationsMapUnderway DataData graphs

EquipmentUnitsComments
TimeDGPSUTC
LatitudeDGPSDM.mWGS84
LongitudeDGPSDM.mWGS84
SpeedMeteo Stationm/sRelative wind speed
DirectionMeteo StationdegRelative wind direction
TemperatureMeteo Stationdeg CelciusAir temperature
PressureMeteo StationPaAtmospheric pressure
HumidityMeteo Station%Relative humidity
Missing or incorrect values are displayed as -999
Metereological data collected by the RV Zeeleeuw from 2009-09-30 06:32:28 to 2009-09-30 16:21:44
Time Latitude Longitude Speed Direction Temperature Pressure Humidity
2009-09-30 06:33 51°13.662 2°55.96 -999 348 14.1 101890 45
2009-09-30 06:34 51°13.663 2°55.96 -999 350 14.1 101900 45
2009-09-30 06:35 51°13.663 2°55.96 -999 344 14.1 101900 45
2009-09-30 06:36 51°13.663 2°55.96 -999 344 14.1 101900 45
2009-09-30 06:37 51°13.658 2°55.96 -999 344 14.1 101900 45
2009-09-30 06:38 51°13.666 2°55.96 -999 341 14.1 101900 45
2009-09-30 06:39 51°13.66 2°55.96 -999 350 14.1 101900 45
2009-09-30 06:40 51°13.66 2°55.96 -999 345 14.1 101900 45
2009-09-30 06:41 51°13.662 2°55.96 -999 345 14.2 101890 45
2009-09-30 06:42 51°13.662 2°55.96 -999 346 14.2 101900 45
2009-09-30 06:43 51°13.662 2°55.96 -999 346 14.2 101900 45
2009-09-30 06:44 51°13.662 2°55.96 -999 352 14.2 101900 45
2009-09-30 06:45 51°13.662 2°55.959 -999 345 14.2 101900 45
2009-09-30 06:46 51°13.663 2°55.959 -999 345 14.2 101900 45
2009-09-30 06:47 51°13.663 2°55.958 -999 345 14.3 101900 45
2009-09-30 06:48 51°13.663 2°55.958 -999 352 14.3 101900 45
2009-09-30 06:49 51°13.663 2°55.958 -999 352 14.3 101900 45
2009-09-30 06:50 51°13.662 2°55.958 -999 340 14.3 101900 45
2009-09-30 06:51 51°13.662 2°55.959 -999 351 14.4 101900 45
2009-09-30 06:52 51°13.662 2°55.959 -999 351 14.4 101900 45
2009-09-30 06:53 51°13.662 2°55.959 -999 354 14.4 101890 45
2009-09-30 06:54 51°13.662 2°55.959 -999 351 14.4 101890 45
2009-09-30 06:55 51°13.664 2°55.959 -999 352 14.4 101900 44
2009-09-30 06:56 51°13.664 2°55.959 -999 349 14.4 101900 45
2009-09-30 06:57 51°13.664 2°55.959 -999 3 14.4 101900 45
2009-09-30 06:58 51°13.663 2°55.96 -999 352 14.4 101900 45
2009-09-30 06:59 51°13.662 2°55.961 -999 351 14.5 101900 45
2009-09-30 07:00 51°13.665 2°55.946 -999 34 14.5 101890 45
2009-09-30 07:01 51°13.684 2°55.879 1.2 21 14.6 101890 45
2009-09-30 07:02 51°13.692 2°55.804 -999 24 14.7 101890 45
2009-09-30 07:03 51°13.696 2°55.775 -999 31 14.8 101890 45
2009-09-30 07:04 51°13.701 2°55.784 -999 29 14.9 101890 46
2009-09-30 07:05 51°13.727 2°55.763 -999 317 15.1 101890 46
2009-09-30 07:06 51°13.776 2°55.695 2.6 329 15.2 101890 46
2009-09-30 07:07 51°13.853 2°55.619 3.8 327 15.4 101890 46
2009-09-30 07:08 51°13.947 2°55.546 4.7 325 15.6 101890 50
2009-09-30 07:09 51°14.051 2°55.469 5.2 323 15.9 101890 49
2009-09-30 07:10 51°14.158 2°55.385 5.8 322 16.1 101890 50
2009-09-30 07:11 51°14.25 2°55.259 6.6 324 16.3 101880 47
2009-09-30 07:12 51°14.342 2°55.088 8 326 16.4 101870 45
2009-09-30 07:13 51°14.449 2°54.906 8 327 16.4 101870 49
2009-09-30 07:14 51°14.579 2°54.703 8.1 325 16.5 101870 48
2009-09-30 07:15 51°14.709 2°54.49 8.3 327 16.5 101870 49
2009-09-30 07:16 51°14.847 2°54.294 9.1 326 16.5 101870 49
2009-09-30 07:17 51°14.994 2°54.122 8.2 325 16.5 101870 45
2009-09-30 07:18 51°15.134 2°53.938 8.4 326 16.6 101870 48
2009-09-30 07:19 51°15.193 2°53.668 9.2 331 16.5 101870 47
2009-09-30 07:20 51°15.2 2°53.366 8.5 336 16.6 101870 46
2009-09-30 07:21 51°15.206 2°53.063 10.2 334 16.6 101880 45
2009-09-30 07:22 51°15.224 2°52.761 8.9 332 16.6 101870 46
2009-09-30 07:23 51°15.246 2°52.456 9 277 16.6 101880 48
2009-09-30 07:24 51°15.273 2°52.083 9.4 334 16.7 101870 48
2009-09-30 07:25 51°15.294 2°51.78 9.4 335 16.6 101880 44
2009-09-30 07:26 51°15.318 2°51.477 10.4 337 16.7 101890 47
2009-09-30 07:27 51°15.34 2°51.174 11.1 336 16.7 101880 47
2009-09-30 07:28 51°15.362 2°50.879 10.6 335 16.7 101890 46
2009-09-30 07:29 51°15.389 2°50.584 10.5 337 16.7 101880 44
2009-09-30 07:30 51°15.384 2°50.285 10.4 338 16.7 101890 48
2009-09-30 07:31 51°15.369 2°49.985 10.1 340 16.7 101880 47
2009-09-30 07:32 51°15.349 2°49.687 10.2 337 16.7 101880 47
2009-09-30 07:33 51°15.335 2°49.389 9.5 339 16.7 101870 47
2009-09-30 07:34 51°15.323 2°49.094 9.3 338 16.7 101880 48
2009-09-30 07:35 51°15.311 2°48.8 11 341 16.7 101880 44
2009-09-30 07:36 51°15.301 2°48.505 9.3 340 16.7 101880 44
2009-09-30 07:37 51°15.293 2°48.21 10.2 340 16.7 101880 45
2009-09-30 07:38 51°15.283 2°47.915 8.6 339 16.7 101880 47
2009-09-30 07:39 51°15.268 2°47.622 8.2 339 16.7 101880 44
2009-09-30 07:40 51°15.255 2°47.33 8.1 338 16.7 101880 48
2009-09-30 07:41 51°15.244 2°47.036 10.4 341 16.7 101880 45
2009-09-30 07:42 51°15.234 2°46.743 9.4 342 16.7 101880 44
2009-09-30 07:43 51°15.227 2°46.449 9.2 341 16.7 101880 46
2009-09-30 07:44 51°15.218 2°46.156 9.8 338 16.7 101880 45
2009-09-30 07:45 51°15.21 2°45.862 9 339 16.7 101880 47
2009-09-30 07:46 51°15.186 2°45.573 10.1 342 16.7 101880 45
2009-09-30 07:47 51°15.157 2°45.283 9 341 16.7 101880 44
2009-09-30 07:48 51°15.131 2°44.994 9.8 342 16.7 101880 46
2009-09-30 07:49 51°15.106 2°44.704 9.3 341 16.7 101880 44
2009-09-30 07:50 51°15.081 2°44.415 8.6 339 16.7 101880 48
2009-09-30 07:51 51°15.057 2°44.126 9.5 341 16.7 101880 43
2009-09-30 07:52 51°15.032 2°43.835 10.2 341 16.7 101880 47
2009-09-30 07:53 51°15.006 2°43.546 9.6 342 16.7 101880 46
2009-09-30 07:54 51°14.98 2°43.258 9.9 341 16.7 101890 48
2009-09-30 07:55 51°14.925 2°42.991 8.7 347 16.7 101880 43
2009-09-30 07:56 51°14.79 2°42.793 8.5 352 16.6 101890 44
2009-09-30 07:57 51°14.642 2°42.613 7.9 353 16.6 101880 43
2009-09-30 07:58 51°14.49 2°42.435 7 349 16.6 101890 46
2009-09-30 07:59 51°14.339 2°42.261 7.3 351 16.6 101890 44
2009-09-30 08:00 51°14.189 2°42.088 8.4 356 16.6 101880 44
2009-09-30 08:01 51°14.045 2°41.906 7.6 350 16.6 101890 43
2009-09-30 08:02 51°13.904 2°41.715 8.3 353 16.6 101890 43
2009-09-30 08:03 51°13.768 2°41.513 8.8 352 16.6 101890 45
2009-09-30 08:04 51°13.632 2°41.312 8.2 352 16.6 101890 46
2009-09-30 08:05 51°13.494 2°41.117 7.6 350 16.6 101890 43
2009-09-30 08:06 51°13.354 2°40.922 8.3 352 16.6 101880 46
2009-09-30 08:07 51°13.216 2°40.728 8.6 351 16.6 101890 47
2009-09-30 08:08 51°13.079 2°40.532 8.3 351 16.6 101890 43
2009-09-30 08:09 51°12.942 2°40.34 7.7 351 16.6 101890 43
2009-09-30 08:10 51°12.809 2°40.143 8.1 353 16.5 101890 43
2009-09-30 08:11 51°12.68 2°39.942 8.6 351 16.5 101890 43
2009-09-30 08:12 51°12.557 2°39.732 7.3 349 16.5 101880 44
2009-09-30 08:13 51°12.436 2°39.52 8.4 349 16.6 101890 48
2009-09-30 08:14 51°12.32 2°39.303 8.5 351 16.5 101880 48
2009-09-30 08:15 51°12.207 2°39.082 8.5 351 16.5 101890 47
2009-09-30 08:16 51°12.094 2°38.86 8.6 349 16.5 101880 48
2009-09-30 08:17 51°11.979 2°38.644 8.3 351 16.5 101890 43
2009-09-30 08:18 51°11.865 2°38.427 7.6 353 16.5 101890 44
2009-09-30 08:19 51°11.75 2°38.209 8.2 351 16.5 101880 44
2009-09-30 08:20 51°11.636 2°37.987 7.6 351 16.5 101890 46
2009-09-30 08:21 51°11.524 2°37.767 7.7 353 16.5 101880 44
2009-09-30 08:22 51°11.407 2°37.551 8.1 354 16.5 101890 43
2009-09-30 08:23 51°11.293 2°37.334 8.2 350 16.5 101890 43
2009-09-30 08:24 51°11.177 2°37.119 7.7 351 16.5 101880 43
2009-09-30 08:25 51°11.052 2°36.917 8.3 351 16.5 101890 43
2009-09-30 08:26 51°10.925 2°36.72 8 351 16.4 101880 43
2009-09-30 08:27 51°10.8 2°36.521 6.7 352 16.4 101890 47
2009-09-30 08:28 51°10.672 2°36.329 7 351 16.5 101890 43
2009-09-30 08:29 51°10.518 2°36.194 7.1 354 16.5 101890 46
2009-09-30 08:30 51°10.356 2°36.079 6.6 353 16.4 101890 45
2009-09-30 08:31 51°10.192 2°35.974 4.9 354 16.4 101890 43
2009-09-30 08:32 51°10.013 2°35.924 4.9 358 16.5 101900 48
2009-09-30 08:33 51°9.834 2°35.883 5.2 356 16.4 101900 47
2009-09-30 08:34 51°9.655 2°35.847 3.9 356 16.4 101890 43
2009-09-30 08:35 51°9.478 2°35.804 5.9 356 16.4 101890 46
2009-09-30 08:36 51°9.309 2°35.761 4.6 1 16.4 101890 49
2009-09-30 08:37 51°9.227 2°35.799 2.6 38 16.5 101900 48
2009-09-30 08:38 51°9.198 2°35.881 1.4 38 16.5 101900 45
2009-09-30 08:39 51°9.18 2°35.962 1.9 32 16.8 101910 46
2009-09-30 08:40 51°9.146 2°36.048 2.6 41 16.8 101900 44
2009-09-30 08:41 51°9.095 2°36.093 3.6 23 16.8 101900 48
2009-09-30 08:42 51°9.04 2°36.106 3.7 16 16.7 101900 44
2009-09-30 08:43 51°8.986 2°36.102 4 5 16.7 101900 45
2009-09-30 08:44 51°8.953 2°36.059 5 356 16.6 101900 45
2009-09-30 08:45 51°8.924 2°36.006 4.4 3 16.6 101900 42
2009-09-30 08:46 51°8.892 2°35.956 6 357 16.5 101900 42
2009-09-30 08:47 51°8.868 2°35.898 5.6 -999 16.5 101900 42
2009-09-30 08:48 51°8.838 2°35.845 5.1 356 16.4 101900 43
2009-09-30 08:49 51°8.815 2°35.786 5.4 2 16.4 101900 42
2009-09-30 08:50 51°8.795 2°35.724 5 355 16.4 101900 42
2009-09-30 08:51 51°8.772 2°35.662 5.9 358 16.4 101890 48
2009-09-30 08:52 51°8.748 2°35.599 4.6 355 16.4 101890 48
2009-09-30 08:53 51°8.726 2°35.536 4.9 357 16.4 101890 49
2009-09-30 08:54 51°8.703 2°35.472 6 353 16.5 101900 44
2009-09-30 08:55 51°8.679 2°35.409 5.3 355 16.4 101890 49
2009-09-30 08:56 51°8.656 2°35.346 5.6 355 16.4 101890 44
2009-09-30 08:57 51°8.633 2°35.283 5.5 357 16.3 101900 41
2009-09-30 08:58 51°8.614 2°35.217 6.1 353 16.4 101890 49
2009-09-30 08:59 51°8.617 2°35.148 5.8 344 16.3 101890 46
2009-09-30 09:00 51°8.638 2°35.081 5.2 338 16.3 101900 45
2009-09-30 09:01 51°8.682 2°35.032 4.9 326 16.4 101890 42
2009-09-30 09:02 51°8.744 2°35.044 4.7 238 16.4 101890 45
2009-09-30 09:03 51°8.784 2°35.09 4.3 243 16.4 101890 44
2009-09-30 09:04 51°8.813 2°35.135 4.3 243 16.4 101890 44
2009-09-30 09:05 51°8.835 2°35.175 3.3 240 16.5 101900 41
2009-09-30 09:06 51°8.853 2°35.212 3.7 233 16.6 101890 49
2009-09-30 09:07 51°8.868 2°35.248 3.6 240 16.6 101890 48
2009-09-30 09:08 51°8.88 2°35.285 3.7 238 16.7 101890 46
2009-09-30 09:09 51°8.89 2°35.322 3.6 245 16.8 101890 49
2009-09-30 09:10 51°8.899 2°35.36 3.2 249 16.8 101890 45
2009-09-30 09:11 51°8.912 2°35.401 3.6 242 16.9 101900 49
2009-09-30 09:12 51°8.954 2°35.421 5.7 331 17 101900 46
2009-09-30 09:13 51°8.968 2°35.376 4.8 -999 16.9 101890 42
2009-09-30 09:14 51°8.916 2°35.244 8.8 347 16.8 101890 43
2009-09-30 09:15 51°8.848 2°35.019 8 347 16.6 101880 43
2009-09-30 09:16 51°8.779 2°34.783 8.5 343 16.5 101880 43
2009-09-30 09:17 51°8.709 2°34.547 8.8 346 16.5 101890 44
2009-09-30 09:18 51°8.638 2°34.309 8.5 346 16.5 101880 45
2009-09-30 09:19 51°8.568 2°34.071 10 347 16.4 101880 44
2009-09-30 09:20 51°8.498 2°33.833 9.4 344 16.4 101880 47
2009-09-30 09:21 51°8.425 2°33.599 8.3 344 16.4 101880 43
2009-09-30 09:22 51°8.338 2°33.375 7.2 346 16.4 101880 43
2009-09-30 09:23 51°8.249 2°33.154 8.2 343 16.4 101880 45
2009-09-30 09:24 51°8.158 2°32.932 7.8 346 16.5 101890 47
2009-09-30 09:25 51°8.068 2°32.709 10.1 347 16.5 101880 44
2009-09-30 09:26 51°7.98 2°32.482 8.6 346 16.5 101890 44
2009-09-30 09:27 51°7.895 2°32.252 8.7 343 16.5 101890 48
2009-09-30 09:28 51°7.845 2°32 8.8 337 16.5 101890 44
2009-09-30 09:29 51°7.851 2°31.733 8.9 333 16.6 101890 46
2009-09-30 09:30 51°7.978 2°31.549 10.7 323 16.7 101890 48
2009-09-30 09:31 51°8.166 2°31.484 8.7 318 16.7 101880 43
2009-09-30 09:32 51°8.342 2°31.587 5.7 38 16.7 101900 45
2009-09-30 09:33 51°8.498 2°31.785 6.5 230 16.7 101900 45
2009-09-30 09:34 51°8.652 2°31.991 5.7 33 16.8 101900 47
2009-09-30 09:35 51°8.81 2°32.189 6 39 16.8 101890 45
2009-09-30 09:36 51°8.956 2°32.404 6.1 33 16.8 101890 48
2009-09-30 09:37 51°9.065 2°32.669 4.3 40 16.8 101900 41
2009-09-30 09:38 51°9.153 2°32.962 4.6 231 16.8 101890 43
2009-09-30 09:39 51°9.244 2°33.261 4.2 33 16.8 101890 47
2009-09-30 09:40 51°9.341 2°33.559 4.3 38 16.9 101880 42
2009-09-30 09:41 51°9.439 2°33.864 4.1 318 16.9 101890 48
2009-09-30 09:42 51°9.556 2°34.146 4.7 35 17 101880 46
2009-09-30 09:43 51°9.692 2°34.412 5.7 37 16.9 101880 43
2009-09-30 09:44 51°9.823 2°34.677 5.8 39 16.9 101880 43
2009-09-30 09:45 51°9.932 2°34.961 4.4 38 16.9 101890 41
2009-09-30 09:46 51°10.002 2°35.274 2.8 40 16.9 101890 47
2009-09-30 09:47 51°10.046 2°35.601 0.6 316 16.9 101890 41
2009-09-30 09:48 51°10.09 2°35.931 3.9 35 17 101890 46
2009-09-30 09:49 51°10.135 2°36.265 3.3 36 17 101890 48
2009-09-30 09:50 51°10.179 2°36.6 3.6 38 17.1 101890 48
2009-09-30 09:51 51°10.224 2°36.935 2.1 235 17.1 101880 48
2009-09-30 09:52 51°10.27 2°37.27 3.1 317 17.2 101880 49
2009-09-30 09:53 51°10.317 2°37.604 3.7 34 17.2 101880 48
2009-09-30 09:54 51°10.365 2°37.935 3.6 34 17.2 101880 47
2009-09-30 09:55 51°10.411 2°38.265 2.8 235 17.3 101880 45
2009-09-30 09:56 51°10.458 2°38.597 2.9 35 17.3 101870 41
2009-09-30 09:57 51°10.506 2°38.929 3.5 234 17.3 101880 43
2009-09-30 09:58 51°10.556 2°39.26 3.6 37 17.3 101870 43
2009-09-30 09:59 51°10.599 2°39.553 2.5 232 17.3 101870 42
2009-09-30 10:00 51°10.65 2°39.827 3.5 235 17.4 101870 43
2009-09-30 10:01 51°10.76 2°40.055 6.9 34 17.4 101870 44
2009-09-30 10:02 51°10.914 2°40.203 5.9 32 17.3 101860 48
2009-09-30 10:03 51°11.085 2°40.349 6.8 34 17.2 101860 42
2009-09-30 10:04 51°11.274 2°40.463 8.4 39 17.2 101850 48
2009-09-30 10:05 51°11.4 2°40.507 4.5 233 17.2 101860 43
2009-09-30 10:06 51°11.461 2°40.605 4 256 17.1 101860 47
2009-09-30 10:07 51°11.492 2°40.731 2.3 266 17.2 101870 41
2009-09-30 10:08 51°11.493 2°40.857 1.7 31 17.2 101870 43
2009-09-30 10:09 51°11.471 2°40.96 0.5 34 17.2 101870 44
2009-09-30 10:10 51°11.433 2°41.022 3.7 18 17.2 101870 45
2009-09-30 10:11 51°11.39 2°41.053 3.8 9 17.1 101860 44
2009-09-30 10:12 51°11.347 2°41.07 4.1 10 17.1 101870 48
2009-09-30 10:13 51°11.296 2°41.077 4.8 8 17.1 101860 42
2009-09-30 10:14 51°11.239 2°41.1 4.6 8 17 101860 42
2009-09-30 10:15 51°11.19 2°41.105 5.1 360 17 101860 49
2009-09-30 10:16 51°11.16 2°41.072 5 349 16.9 101860 46
2009-09-30 10:17 51°11.13 2°41.012 5.4 352 16.8 101850 44
2009-09-30 10:18 51°11.097 2°40.95 5.5 355 16.7 101850 45
2009-09-30 10:19 51°11.068 2°40.901 5.2 355 16.7 101850 42
2009-09-30 10:20 51°11.041 2°40.855 4.7 357 16.6 101850 43
2009-09-30 10:21 51°11.011 2°40.806 5.2 352 16.6 101860 49
2009-09-30 10:22 51°10.98 2°40.753 5.5 354 16.7 101850 45
2009-09-30 10:23 51°10.948 2°40.7 5.6 354 16.6 101850 48
2009-09-30 10:24 51°10.911 2°40.658 4 1 16.6 101860 43
2009-09-30 10:25 51°10.858 2°40.659 2.7 17 16.6 101860 47
2009-09-30 10:26 51°10.803 2°40.687 3.6 14 16.6 101860 48
2009-09-30 10:27 51°10.755 2°40.711 4.2 7 16.7 101860 44
2009-09-30 10:28 51°10.713 2°40.716 4.2 4 16.7 101860 43
2009-09-30 10:29 51°10.673 2°40.72 4 7 16.7 101860 49
2009-09-30 10:30 51°10.631 2°40.718 4.4 2 16.7 101860 44
2009-09-30 10:31 51°10.592 2°40.702 5.1 358 16.7 101860 43
2009-09-30 10:32 51°10.563 2°40.668 5 348 16.7 101860 47
2009-09-30 10:33 51°10.554 2°40.637 4.8 347 16.6 101850 44
2009-09-30 10:34 51°10.554 2°40.628 3.6 344 16.6 101850 43
2009-09-30 10:35 51°10.557 2°40.631 3.9 348 16.6 101860 49
2009-09-30 10:36 51°10.559 2°40.644 3.4 347 16.6 101860 48
2009-09-30 10:37 51°10.563 2°40.662 3.3 346 16.6 101860 49
2009-09-30 10:38 51°10.566 2°40.683 3.3 349 16.7 101850 44
2009-09-30 10:39 51°10.57 2°40.707 3.1 344 16.6 101850 44
2009-09-30 10:40 51°10.571 2°40.684 5 336 16.6 101850 45
2009-09-30 10:41 51°10.564 2°40.55 5.5 342 16.7 101850 44
2009-09-30 10:42 51°10.542 2°40.501 4.2 355 16.8 101850 43
2009-09-30 10:43 51°10.521 2°40.497 4.5 4 16.8 101850 49
2009-09-30 10:44 51°10.493 2°40.485 5.9 345 16.7 101850 48
2009-09-30 10:45 51°10.495 2°40.355 8.3 333 16.7 101840 43
2009-09-30 10:46 51°10.495 2°40.123 9.4 333 16.7 101840 43
2009-09-30 10:47 51°10.489 2°39.857 10.6 337 16.8 101840 45
2009-09-30 10:48 51°10.472 2°39.588 9.6 336 16.9 101830 43
2009-09-30 10:49 51°10.45 2°39.323 9.6 338 16.9 101830 47
2009-09-30 10:50 51°10.431 2°39.057 10.4 336 16.9 101840 47
2009-09-30 10:51 51°10.413 2°38.791 9.7 336 17 101830 45
2009-09-30 10:52 51°10.396 2°38.523 10.5 335 16.9 101830 47
2009-09-30 10:53 51°10.377 2°38.253 10.2 337 16.9 101830 48
2009-09-30 10:54 51°10.359 2°37.982 9.1 336 16.9 101840 44
2009-09-30 10:55 51°10.353 2°37.71 9.7 335 16.9 101840 48
2009-09-30 10:56 51°10.359 2°37.44 9.3 335 16.9 101830 45
2009-09-30 10:57 51°10.367 2°37.175 9.6 334 16.9 101840 43
2009-09-30 10:58 51°10.416 2°36.917 10.6 329 16.9 101840 46
2009-09-30 10:59 51°10.493 2°36.67 9.9 326 16.9 101840 44
2009-09-30 11:00 51°10.635 2°36.5 8.3 317 16.9 101830 44
2009-09-30 11:01 51°10.824 2°36.503 6.9 36 17 101840 48
2009-09-30 11:02 51°10.999 2°36.654 5.5 33 17 101840 46
2009-09-30 11:03 51°11.163 2°36.847 5 35 17 101840 43
2009-09-30 11:04 51°11.331 2°37.034 5.9 238 17.1 101840 44
2009-09-30 11:05 51°11.503 2°37.21 6.7 233 17.1 101830 47
2009-09-30 11:06 51°11.679 2°37.377 6.6 233 17 101840 43
2009-09-30 11:07 51°11.855 2°37.541 7.6 315 17 101840 45
2009-09-30 11:08 51°12.046 2°37.571 9.1 319 17 101830 45
2009-09-30 11:09 51°12.238 2°37.532 8.7 318 16.9 101830 45
2009-09-30 11:10 51°12.43 2°37.489 9.3 318 16.9 101820 45
2009-09-30 11:11 51°12.621 2°37.445 8.2 316 17 101820 46
2009-09-30 11:12 51°12.811 2°37.401 9.6 317 17 101820 47
2009-09-30 11:13 51°13.001 2°37.356 9.3 318 17 101820 46
2009-09-30 11:14 51°13.19 2°37.315 8.4 318 16.9 101820 46
2009-09-30 11:15 51°13.38 2°37.272 10 316 16.9 101820 42
2009-09-30 11:16 51°13.569 2°37.231 9.2 318 17 101820 47
2009-09-30 11:17 51°13.761 2°37.189 8.4 319 16.9 101820 44
2009-09-30 11:18 51°13.949 2°37.137 10.9 322 17 101810 43
2009-09-30 11:19 51°14.04 2°36.93 9.5 338 17 101810 46
2009-09-30 11:20 51°13.969 2°36.697 9.2 345 16.9 101810 42
2009-09-30 11:21 51°13.861 2°36.48 9.5 344 16.9 101820 43
2009-09-30 11:22 51°13.752 2°36.265 10.1 342 16.8 101820 45
2009-09-30 11:23 51°13.647 2°36.047 9.3 345 16.8 101810 43
2009-09-30 11:24 51°13.543 2°35.83 9 342 16.8 101810 47
2009-09-30 11:25 51°13.44 2°35.614 9.6 342 16.8 101810 43
2009-09-30 11:26 51°13.346 2°35.39 9.7 341 16.8 101810 46
2009-09-30 11:27 51°13.263 2°35.155 10.3 341 16.8 101810 46
2009-09-30 11:28 51°13.181 2°34.918 11.7 342 16.8 101810 44
2009-09-30 11:29 51°13.096 2°34.666 9.3 342 16.8 101810 44
2009-09-30 11:30 51°13.012 2°34.427 9.5 339 16.8 101810 46
2009-09-30 11:31 51°12.929 2°34.192 10.3 339 16.8 101810 45
2009-09-30 11:32 51°12.841 2°33.951 10.4 341 16.8 101810 46
2009-09-30 11:33 51°12.755 2°33.72 9.6 342 16.8 101810 47
2009-09-30 11:34 51°12.668 2°33.478 10.7 343 16.8 101820 45
2009-09-30 11:35 51°12.591 2°33.24 9.9 336 16.7 101810 44
2009-09-30 11:36 51°12.599 2°32.973 11 326 16.8 101810 44
2009-09-30 11:37 51°12.75 2°32.826 9.3 318 16.8 101810 45
2009-09-30 11:38 51°12.939 2°32.744 8.5 27 16.8 101810 44
2009-09-30 11:39 51°13.125 2°32.848 7 21 16.8 101810 47
2009-09-30 11:40 51°13.302 2°33.02 6.5 27 16.9 101820 42
2009-09-30 11:41 51°13.468 2°33.227 5.8 25 16.9 101820 46
2009-09-30 11:42 51°13.632 2°33.43 5.9 27 16.9 101810 45
2009-09-30 11:43 51°13.802 2°33.64 6.7 27 16.9 101810 48
2009-09-30 11:44 51°13.964 2°33.844 6.6 21 16.9 101810 43
2009-09-30 11:45 51°14.13 2°34.051 6 24 17 101810 48
2009-09-30 11:46 51°14.292 2°34.253 5.1 23 17 101810 46
2009-09-30 11:47 51°14.453 2°34.456 5.8 23 17 101810 42
2009-09-30 11:48 51°14.616 2°34.659 5.5 25 17 101810 46
2009-09-30 11:49 51°14.777 2°34.862 6 27 17 101810 43
2009-09-30 11:50 51°14.943 2°35.067 5.3 28 17 101800 42
2009-09-30 11:51 51°15.108 2°35.274 4.1 21 17 101800 43
2009-09-30 11:52 51°15.272 2°35.486 5.3 28 17 101800 48
2009-09-30 11:53 51°15.431 2°35.688 5.6 24 17 101800 47
2009-09-30 11:54 51°15.596 2°35.897 6.4 23 16.9 101800 44
2009-09-30 11:55 51°15.76 2°36.101 5 28 16.9 101790 47
2009-09-30 11:56 51°15.919 2°36.309 5.8 23 17 101800 42
2009-09-30 11:57 51°16.081 2°36.522 6.1 26 17 101790 48
2009-09-30 11:58 51°16.246 2°36.739 5.1 27 17 101790 42
2009-09-30 11:59 51°16.408 2°36.95 4.4 21 17.1 101790 43
2009-09-30 12:00 51°16.569 2°37.158 5.1 27 17.1 101790 43
2009-09-30 12:01 51°16.735 2°37.376 6.4 23 17.2 101780 48
2009-09-30 12:02 51°16.9 2°37.581 5.8 24 17.2 101790 47
2009-09-30 12:03 51°17.063 2°37.798 4.3 28 17.2 101790 47
2009-09-30 12:04 51°17.229 2°38.017 6.5 21 17.2 101790 41
2009-09-30 12:05 51°17.392 2°38.232 6.9 24 17.2 101790 42
2009-09-30 12:06 51°17.556 2°38.446 5.4 23 17.2 101790 42
2009-09-30 12:07 51°17.721 2°38.66 4.9 29 17.2 101780 48
2009-09-30 12:08 51°17.887 2°38.87 5 28 17.2 101780 46
2009-09-30 12:09 51°18.049 2°39.078 5.9 23 17.2 101780 46
2009-09-30 12:10 51°18.212 2°39.294 6.7 27 17.2 101780 44
2009-09-30 12:11 51°18.376 2°39.507 6 28 17.2 101780 41
2009-09-30 12:12 51°18.549 2°39.677 8.2 27 17.2 101780 42
2009-09-30 12:13 51°18.746 2°39.687 11.4 317 17.2 101770 44
2009-09-30 12:14 51°18.857 2°39.485 11.3 335 17.2 101760 43
2009-09-30 12:15 51°18.819 2°39.233 10.9 340 17.1 101760 45
2009-09-30 12:16 51°18.727 2°39 10.6 343 17 101760 46
2009-09-30 12:17 51°18.628 2°38.773 11.7 342 16.9 101760 43
2009-09-30 12:18 51°18.526 2°38.546 10.2 341 16.9 101760 45
2009-09-30 12:19 51°18.425 2°38.318 10.6 338 16.9 101760 46
2009-09-30 12:20 51°18.339 2°38.075 11 338 17 101760 45
2009-09-30 12:21 51°18.256 2°37.827 10.3 341 17 101760 45
2009-09-30 12:22 51°18.16 2°37.594 10.3 341 17 101760 45
2009-09-30 12:23 51°18.052 2°37.375 10.6 345 17 101760 43
2009-09-30 12:24 51°17.939 2°37.149 11.1 341 17 101760 44
2009-09-30 12:25 51°17.828 2°36.927 10.9 344 17 101760 46
2009-09-30 12:26 51°17.712 2°36.713 9.5 344 16.9 101760 47
2009-09-30 12:27 51°17.584 2°36.516 8.9 344 16.8 101760 43
2009-09-30 12:28 51°17.442 2°36.341 10 345 16.7 101760 45
2009-09-30 12:29 51°17.302 2°36.171 9.4 343 16.7 101760 43
2009-09-30 12:30 51°17.161 2°35.994 9.1 346 16.6 101760 47
2009-09-30 12:31 51°17.03 2°35.827 10.2 282 16.6 101760 47
2009-09-30 12:32 51°16.866 2°35.619 8.8 346 16.6 101750 47
2009-09-30 12:33 51°16.722 2°35.436 10.2 342 16.6 101760 44
2009-09-30 12:34 51°16.584 2°35.258 10.5 342 16.6 101760 46
2009-09-30 12:35 51°16.442 2°35.079 10.2 342 16.6 101760 47
2009-09-30 12:36 51°16.305 2°34.906 8 344 16.6 101760 44
2009-09-30 12:37 51°16.216 2°34.815 8 352 16.6 101770 48
2009-09-30 12:38 51°16.124 2°34.789 5.2 4 16.5 101770 47
2009-09-30 12:39 51°16.061 2°34.789 4.7 6 16.5 101780 49
2009-09-30 12:40 51°16.016 2°34.787 5.8 4 16.6 101780 49
2009-09-30 12:41 51°15.975 2°34.772 5.8 359 16.5 101770 43
2009-09-30 12:42 51°15.935 2°34.734 5.7 351 16.5 101780 43
2009-09-30 12:43 51°15.905 2°34.679 5.6 344 16.6 101770 43
2009-09-30 12:44 51°15.889 2°34.611 5.9 337 16.7 101770 42
2009-09-30 12:45 51°15.885 2°34.536 6.9 335 16.7 101770 44
2009-09-30 12:46 51°15.879 2°34.461 7.5 339 16.8 101770 48
2009-09-30 12:47 51°15.855 2°34.394 5.8 352 16.7 101770 45
2009-09-30 12:48 51°15.812 2°34.343 6.3 356 16.7 101770 46
2009-09-30 12:49 51°15.765 2°34.291 6.7 356 16.6 101770 48
2009-09-30 12:50 51°15.721 2°34.242 6 358 16.6 101770 48
2009-09-30 12:51 51°15.675 2°34.194 5.3 355 16.6 101770 47
2009-09-30 12:52 51°15.631 2°34.147 6.1 352 16.6 101770 42
2009-09-30 12:53 51°15.593 2°34.1 5.8 354 16.6 101760 46
2009-09-30 12:54 51°15.559 2°34.055 6.3 359 16.5 101760 48
2009-09-30 12:55 51°15.524 2°34.009 5 351 16.5 101760 43
2009-09-30 12:56 51°15.489 2°33.962 6 355 16.5 101760 46
2009-09-30 12:57 51°15.455 2°33.915 5.2 353 16.4 101770 44
2009-09-30 12:58 51°15.42 2°33.868 5.2 351 16.5 101760 48
2009-09-30 12:59 51°15.385 2°33.822 6.6 356 16.5 101760 47
2009-09-30 13:00 51°15.35 2°33.774 5.9 357 16.5 101760 47
2009-09-30 13:01 51°15.318 2°33.725 6.1 352 16.5 101760 48
2009-09-30 13:02 51°15.293 2°33.665 6.3 347 16.5 101760 42
2009-09-30 13:03 51°15.275 2°33.601 6.6 344 16.5 101760 43
2009-09-30 13:04 51°15.263 2°33.531 6.3 338 16.5 101760 48
2009-09-30 13:05 51°15.271 2°33.462 6.8 324 16.6 101760 48
2009-09-30 13:06 51°15.305 2°33.419 5.1 301 16.7 101760 48
2009-09-30 13:07 51°15.341 2°33.419 4.7 306 16.8 101760 49
2009-09-30 13:08 51°15.367 2°33.425 5.9 308 16.9 101770 42
2009-09-30 13:09 51°15.402 2°33.47 3.6 54 17.1 101760 47
2009-09-30 13:10 51°15.378 2°33.552 4.5 20 17.1 101770 47
2009-09-30 13:11 51°15.326 2°33.511 6.5 346 17 101760 47
2009-09-30 13:12 51°15.257 2°33.438 8.1 347 16.8 101760 44
2009-09-30 13:13 51°15.157 2°33.293 8.1 346 16.7 101740 48
2009-09-30 13:14 51°15.063 2°33.11 10.1 338 16.6 101740 44
2009-09-30 13:15 51°15.011 2°32.889 9.1 337 16.7 101740 47
2009-09-30 13:16 51°14.952 2°32.723 6.3 353 16.7 101740 47
2009-09-30 13:17 51°14.901 2°32.688 4.9 8 16.7 101760 48
2009-09-30 13:18 51°14.849 2°32.679 5 6 16.7 101760 48
2009-09-30 13:19 51°14.804 2°32.652 5.5 359 16.7 101760 42
2009-09-30 13:20 51°14.77 2°32.604 5.3 351 16.6 101750 48
2009-09-30 13:21 51°14.738 2°32.551 6.3 355 16.7 101750 43
2009-09-30 13:22 51°14.708 2°32.498 5.4 349 16.6 101750 48
2009-09-30 13:23 51°14.688 2°32.436 5.2 340 16.6 101750 43
2009-09-30 13:24 51°14.673 2°32.366 6.9 344 16.6 101740 47
2009-09-30 13:25 51°14.655 2°32.291 6.9 350 16.6 101740 47
2009-09-30 13:26 51°14.63 2°32.221 5.6 346 16.6 101750 47
2009-09-30 13:27 51°14.598 2°32.161 5.5 1 16.6 101740 48
2009-09-30 13:28 51°14.556 2°32.115 5.3 359 16.6 101750 49
2009-09-30 13:29 51°14.518 2°32.063 6.2 357 16.6 101750 47
2009-09-30 13:30 51°14.48 2°32.009 5.7 358 16.6 101750 43
2009-09-30 13:31 51°14.441 2°31.955 5.7 358 16.5 101750 46
2009-09-30 13:32 51°14.402 2°31.9 5.9 356 16.5 101750 42
2009-09-30 13:33 51°14.363 2°31.847 6.3 352 16.6 101750 48
2009-09-30 13:34 51°14.323 2°31.796 6.3 358 16.5 101750 46
2009-09-30 13:35 51°14.277 2°31.775 4.9 20 16.5 101750 42
2009-09-30 13:36 51°14.227 2°31.784 4.8 18 16.6 101750 48
2009-09-30 13:37 51°14.177 2°31.783 5 14 16.6 101750 48
2009-09-30 13:38 51°14.133 2°31.769 4.6 9 16.7 101750 49
2009-09-30 13:39 51°14.092 2°31.746 4.9 10 16.8 101740 46
2009-09-30 13:40 51°14.055 2°31.714 5.9 3 16.8 101750 48
2009-09-30 13:41 51°14.021 2°31.672 5.9 355 16.7 101740 48
2009-09-30 13:42 51°13.997 2°31.638 6.3 355 16.6 101740 48
2009-09-30 13:43 51°13.978 2°31.613 5 3 16.6 101740 45
2009-09-30 13:44 51°13.962 2°31.596 6.2 356 16.6 101740 48
2009-09-30 13:45 51°13.906 2°31.522 7.3 349 16.6 101730 42
2009-09-30 13:46 51°13.785 2°31.354 8.3 344 16.6 101730 44
2009-09-30 13:47 51°13.653 2°31.168 9.6 347 16.5 101730 44
2009-09-30 13:48 51°13.522 2°30.978 8.4 344 16.5 101730 42
2009-09-30 13:49 51°13.393 2°30.791 9.4 349 16.5 101730 47
2009-09-30 13:50 51°13.259 2°30.597 9 347 16.5 101730 47
2009-09-30 13:51 51°13.123 2°30.404 9.5 347 16.6 101730 44
2009-09-30 13:52 51°12.973 2°30.215 9.3 347 16.6 101730 46
2009-09-30 13:53 51°12.813 2°30.065 10.1 351 16.5 101730 45
2009-09-30 13:54 51°12.638 2°29.935 9.5 352 16.5 101730 44
2009-09-30 13:55 51°12.462 2°29.813 9.6 351 16.6 101730 45
2009-09-30 13:56 51°12.294 2°29.67 10.3 348 16.5 101730 45
2009-09-30 13:57 51°12.145 2°29.483 10.2 349 16.5 101730 45
2009-09-30 13:58 51°12.001 2°29.294 9.7 349 16.5 101730 43
2009-09-30 13:59 51°11.852 2°29.1 9.8 347 16.5 101730 47
2009-09-30 14:00 51°11.707 2°28.911 8.6 346 16.5 101730 45
2009-09-30 14:01 51°11.567 2°28.697 11.6 344 16.6 101720 47
2009-09-30 14:02 51°11.476 2°28.434 10 335 16.6 101730 44
2009-09-30 14:03 51°11.428 2°28.137 11.3 334 16.7 101730 47
2009-09-30 14:04 51°11.399 2°27.833 10 336 16.7 101720 45
2009-09-30 14:05 51°11.387 2°27.53 10.8 335 16.8 101730 43
2009-09-30 14:06 51°11.41 2°27.223 10.6 331 16.9 101730 44
2009-09-30 14:07 51°11.462 2°26.931 10.7 330 16.8 101720 45
2009-09-30 14:08 51°11.531 2°26.644 9.5 329 16.8 101730 44
2009-09-30 14:09 51°11.634 2°26.384 11 306 16.9 101710 46
2009-09-30 14:10 51°11.801 2°26.264 9.2 307 16.9 101700 47
2009-09-30 14:11 51°11.976 2°26.328 6.7 306 16.9 101740 47
2009-09-30 14:12 51°12.114 2°26.518 6.1 309 16.9 101730 47
2009-09-30 14:13 51°12.252 2°26.723 6 303 16.9 101740 43
2009-09-30 14:14 51°12.39 2°26.918 5.9 301 17 101740 42
2009-09-30 14:15 51°12.53 2°27.12 6.3 301 17 101740 42
2009-09-30 14:16 51°12.668 2°27.32 7.3 302 17 101740 45
2009-09-30 14:17 51°12.806 2°27.517 6.2 302 17.1 101730 43
2009-09-30 14:18 51°12.945 2°27.714 6.2 304 17.1 101730 45
2009-09-30 14:19 51°13.084 2°27.907 5.6 307 17.1 101730 43
2009-09-30 14:20 51°13.222 2°28.103 6.5 302 17.2 101730 42
2009-09-30 14:21 51°13.358 2°28.302 6.4 307 17.2 101730 45
2009-09-30 14:22 51°13.496 2°28.5 7.2 304 17.2 101720 43
2009-09-30 14:23 51°13.631 2°28.691 5.9 302 17.2 101730 48
2009-09-30 14:24 51°13.772 2°28.889 5.1 309 17.2 101720 46
2009-09-30 14:25 51°13.906 2°29.082 5.5 301 17.2 101730 42
2009-09-30 14:26 51°14.043 2°29.279 5.4 306 17.3 101730 42
2009-09-30 14:27 51°14.181 2°29.471 5.9 303 17.3 101720 47
2009-09-30 14:28 51°14.317 2°29.664 6.3 305 17.3 101720 47
2009-09-30 14:29 51°14.454 2°29.856 5.7 308 17.3 101720 46
2009-09-30 14:30 51°14.591 2°30.048 6.5 302 17.3 101720 47
2009-09-30 14:31 51°14.73 2°30.235 5.9 305 17.3 101720 47
2009-09-30 14:32 51°14.874 2°30.412 6.7 309 17.3 101710 48
2009-09-30 14:33 51°15.019 2°30.592 5.9 304 17.3 101710 48
2009-09-30 14:34 51°15.164 2°30.772 7.1 302 17.4 101710 42
2009-09-30 14:35 51°15.311 2°30.956 6.8 236 17.4 101710 42
2009-09-30 14:36 51°15.451 2°31.143 6.5 237 17.4 101720 45
2009-09-30 14:37 51°15.585 2°31.342 6.2 239 17.3 101710 48
2009-09-30 14:38 51°15.719 2°31.539 5.6 237 17.3 101710 48
2009-09-30 14:39 51°15.855 2°31.735 6 244 17.3 101710 46
2009-09-30 14:40 51°15.992 2°31.928 6.7 237 17.4 101710 45
2009-09-30 14:41 51°16.127 2°32.124 7.2 240 17.4 101710 43
2009-09-30 14:42 51°16.264 2°32.316 7 237 17.3 101710 44
2009-09-30 14:43 51°16.4 2°32.509 5.8 242 17.3 101710 47
2009-09-30 14:44 51°16.536 2°32.699 7 242 17.4 101710 45
2009-09-30 14:45 51°16.674 2°32.888 6.5 243 17.4 101710 47
2009-09-30 14:46 51°16.811 2°33.081 7.7 240 17.4 101710 43
2009-09-30 14:47 51°16.946 2°33.28 6.4 238 17.4 101700 47
2009-09-30 14:48 51°17.083 2°33.479 6 240 17.4 101710 47
2009-09-30 14:49 51°17.22 2°33.678 6.5 238 17.3 101700 42
2009-09-30 14:50 51°17.356 2°33.88 6.7 244 17.3 101700 43
2009-09-30 14:51 51°17.468 2°34.114 5 239 17.3 101700 44
2009-09-30 14:52 51°17.569 2°34.359 5.1 244 17.3 101700 47
2009-09-30 14:53 51°17.675 2°34.597 5.5 242 17.3 101700 42
2009-09-30 14:54 51°17.818 2°34.766 8.4 236 17.3 101700 47
2009-09-30 14:55 51°17.977 2°34.904 8.4 241 17.2 101680 44
2009-09-30 14:56 51°18.089 2°35.119 5.1 248 17.2 101690 42
2009-09-30 14:57 51°18.154 2°35.384 4.4 250 17.2 101700 45
2009-09-30 14:58 51°18.214 2°35.654 5 243 17.2 101700 49
2009-09-30 14:59 51°18.275 2°35.924 5.2 247 17.2 101690 47
2009-09-30 15:00 51°18.339 2°36.191 4.1 248 17.2 101690 47
2009-09-30 15:01 51°18.408 2°36.455 5.1 243 17.2 101690 43
2009-09-30 15:02 51°18.47 2°36.721 4 245 17.2 101690 46
2009-09-30 15:03 51°18.484 2°36.998 1.5 246 17.2 101690 43
2009-09-30 15:04 51°18.424 2°37.265 -999 39 17.2 101690 45
2009-09-30 15:05 51°18.35 2°37.531 0.1 259 17.2 101700 45
2009-09-30 15:06 51°18.291 2°37.808 -999 249 17.2 101690 45
2009-09-30 15:07 51°18.24 2°38.093 -999 245 17.3 101690 45
2009-09-30 15:08 51°18.179 2°38.372 0.1 261 17.3 101690 45
2009-09-30 15:09 51°18.116 2°38.651 -999 238 17.3 101690 49
2009-09-30 15:10 51°18.051 2°38.927 -999 237 17.3 101690 46
2009-09-30 15:11 51°17.987 2°39.204 -999 324 17.3 101690 45
2009-09-30 15:12 51°17.922 2°39.48 -999 241 17.3 101690 46
2009-09-30 15:13 51°17.859 2°39.752 0.8 318 17.3 101700 46
2009-09-30 15:14 51°17.802 2°40.021 1.1 248 17.3 101690 47
2009-09-30 15:15 51°17.746 2°40.289 0.8 240 17.3 101690 45
2009-09-30 15:16 51°17.683 2°40.556 1.1 258 17.4 101690 45
2009-09-30 15:17 51°17.627 2°40.829 1.3 251 17.3 101690 49
2009-09-30 15:18 51°17.576 2°41.108 -999 256 17.4 101690 45
2009-09-30 15:19 51°17.512 2°41.381 -999 235 17.4 101690 46
2009-09-30 15:20 51°17.441 2°41.652 -999 322 17.4 101690 46
2009-09-30 15:21 51°17.367 2°41.924 0.7 247 17.5 101690 44
2009-09-30 15:22 51°17.293 2°42.193 1.2 236 17.4 101700 46
2009-09-30 15:23 51°17.223 2°42.461 0.1 258 17.4 101690 46
2009-09-30 15:24 51°17.154 2°42.716 -999 260 17.4 101690 45
2009-09-30 15:25 51°17.087 2°42.971 -999 257 17.3 101690 45
2009-09-30 15:26 51°17.017 2°43.234 -999 243 17.3 101690 46
2009-09-30 15:27 51°16.946 2°43.498 1.4 317 17.3 101690 44
2009-09-30 15:28 51°16.875 2°43.764 2 249 17.3 101690 45
2009-09-30 15:29 51°16.805 2°44.032 2.8 255 17.3 101690 44
2009-09-30 15:30 51°16.736 2°44.303 1.3 268 17.3 101690 49
2009-09-30 15:31 51°16.665 2°44.569 1.1 256 17.2 101680 46
2009-09-30 15:32 51°16.592 2°44.837 1.3 254 17.2 101690 46
2009-09-30 15:33 51°16.521 2°45.104 -999 258 17.1 101680 45
2009-09-30 15:34 51°16.449 2°45.373 0.9 260 17.1 101680 45
2009-09-30 15:35 51°16.377 2°45.64 -999 258 17.1 101680 45
2009-09-30 15:36 51°16.308 2°45.909 -999 247 17.1 101680 46
2009-09-30 15:37 51°16.237 2°46.175 1 242 17.1 101690 45
2009-09-30 15:38 51°16.162 2°46.44 0.5 37 17.1 101680 46
2009-09-30 15:39 51°16.087 2°46.704 -999 258 17.1 101680 46
2009-09-30 15:40 51°16.012 2°46.968 0.9 264 17.1 101680 45
2009-09-30 15:41 51°15.936 2°47.23 -999 263 17.1 101680 45
2009-09-30 15:42 51°15.863 2°47.491 -999 41 17.1 101690 50
2009-09-30 15:43 51°15.788 2°47.75 0.6 237 17.1 101680 45
2009-09-30 15:44 51°15.724 2°48.016 1.6 256 17.1 101680 50
2009-09-30 15:45 51°15.665 2°48.284 1 251 17.1 101680 46
2009-09-30 15:46 51°15.607 2°48.552 0.4 257 17.1 101680 45
2009-09-30 15:47 51°15.544 2°48.816 0.6 233 17.1 101680 48
2009-09-30 15:48 51°15.48 2°49.084 0.1 245 17.1 101690 45
2009-09-30 15:49 51°15.417 2°49.351 0.6 252 17.1 101680 45
2009-09-30 15:50 51°15.354 2°49.617 1.4 256 17.2 101680 49
2009-09-30 15:51 51°15.291 2°49.885 1 256 17.2 101670 45
2009-09-30 15:52 51°15.228 2°50.153 1.3 257 17.1 101680 44
2009-09-30 15:53 51°15.164 2°50.421 1.6 253 17.1 101680 45
2009-09-30 15:54 51°15.1 2°50.687 0.6 261 17.1 101680 45
2009-09-30 15:55 51°15.035 2°50.952 1 258 17.1 101680 47
2009-09-30 15:56 51°14.97 2°51.217 0.6 237 17.1 101680 46
2009-09-30 15:57 51°14.907 2°51.48 0.7 248 17.1 101680 45
2009-09-30 15:58 51°14.853 2°51.743 2.4 260 17.1 101680 42
2009-09-30 15:59 51°14.801 2°52.008 2.1 255 17.1 101680 42
2009-09-30 16:00 51°14.753 2°52.274 2 256 17.1 101680 46
2009-09-30 16:01 51°14.705 2°52.544 -999 240 17.1 101680 46
2009-09-30 16:02 51°14.657 2°52.812 0.1 251 17.1 101680 46
2009-09-30 16:03 51°14.609 2°53.073 2.4 269 17.1 101680 45
2009-09-30 16:04 51°14.579 2°53.234 3.6 34 17 101680 42
2009-09-30 16:05 51°14.547 2°53.385 1.9 31 16.9 101670 46
2009-09-30 16:06 51°14.514 2°53.616 0.1 266 16.9 101670 46
2009-09-30 16:07 51°14.487 2°53.87 2 252 16.8 101680 48
2009-09-30 16:08 51°14.459 2°54.129 2.2 259 16.9 101680 44
2009-09-30 16:09 51°14.431 2°54.392 1.8 256 16.9 101680 44
2009-09-30 16:10 51°14.408 2°54.655 -999 258 16.8 101680 45
2009-09-30 16:11 51°14.377 2°54.918 -999 248 16.9 101680 45
2009-09-30 16:12 51°14.308 2°55.173 1.1 10 16.9 101680 45
2009-09-30 16:13 51°14.182 2°55.359 2.6 7 16.9 101670 42
2009-09-30 16:14 51°14.046 2°55.47 1.7 28 16.9 101680 43
2009-09-30 16:15 51°13.946 2°55.545 1 10 16.9 101670 47
2009-09-30 16:16 51°13.86 2°55.608 -999 23 16.9 101670 45
2009-09-30 16:17 51°13.784 2°55.682 -999 36 16.9 101670 45
2009-09-30 16:18 51°13.73 2°55.77 -999 36 16.9 101670 45
2009-09-30 16:19 51°13.689 2°55.86 0.1 38 16.9 101670 45
2009-09-30 16:20 51°13.668 2°55.937 2.9 35 16.9 101670 47